SCP
0 0 0 0 0 0 0 0 0 0 0 0 0 0 0 0 0 0 0 0 0 0 0 0 0 0 0 0 0 0 0 0 0 0 0 0 0 0 0 0 0 0 0 0
0 0 0 0 0 0 0 0 0 0 0 0 0 0 0 0 0 0 0 0 0 0 0 0 0 0 0 0 0 0 0 0 0 0 0 0 0 0 0 0 0 0 0 0
0 0 0 0 0 0 0 0 0 0 0 0 0 0 0 0 0 0 0 0 0 0 0 0 0 0 0 0 0 0 0 0 0 0 0 0 0 0 0 0 0 0 0 0
0 0 0 0 0 0 0 0 0 0 0 0 0 0 0 0 0 0 0 0 0 0 0 0 0 0 0 0 0 0 0 0 0 0 0 0 0 0 0 0 0 0 0 0
0 0 0 0 0 0 0 0 0 0 0 0 0 0 0 0 0 0 0 0 0 0 0 0 0 0 0 0 0 0 0 0 0 0 0 0 0 0 0 0 0 0 0 0
0 0 0 -0 0 0 0 0 0 0 0 0 0 0 0 0 0 0 0 0 0 0 0 0 0 0 0 0 0 0 0 0 0 0 0 0 0 0 0 0 0 0 0 0
0 0 0 -0 0 0 0 0 0 0 0 0 0 0 0 0 0 0 0 0 0 0 0 0 0 0 0 0 0 0 0 0 0 0 0 0 0 0 0 0 0 0 0 0
0 0 0 0 0 0 0 0 0 0 0 0 0 0 0 0 0 0 0 0 0 0 0 0 0 0 0 0 0 0 0 0 0 0 0 0 0 0 0 0 0 0 0 0
0 0 0 0 0 0 0 0 0 0 0 0 0 0 0 0 0 0 0 0 0 0 0 0 0 0 0 0 0 0 0 0 0 0 0 0 0 0 0 0 0 0 0 0
0 0 0 0 -0 0 0 0 0 0 0 0 0 0 0 0 0 0 0 0 0 0 0 0 0 0 0 0 0 0 0 0 0 0 0 0 0 0 0 0 0 0 0 0
0 0 0 0 0 0 0 0 0 0 0 0 0 0 0 0 0 0 0 0 0 0 0 0 0 0 0 0 0 0 0 0 0 0 0 0 0 0 0 0 0 0 0 0
0 0 0 0 0 0 0 0 0 0 0 0 0 0 0 0 0 0 0 0 0 0 0 0 0 0 0 0 0 0 0 0 0 0 0 0 0 0 0 0 0 0 0 0
0 0 0 0 0 0 0 0 0 0 0 0 0 0 0 0 0 0 0 0 0 0 0 0 0 0 0 0 0 0 0 0 0 0 0 0 0 0 0 0 0 0 0 0
0 0 0 0 0 0 0 0 0 0 0 0 0 0 0 0 0 0 0 0 0 0 0 0 0 0 0 0 0 0 0 0 0 0 0 0 0 0 0 0 0 0 0 0
0 0 0 0 0 0 0 0 0 0 0 0 0 0 0 0 0 0 0 0 0 0 0 0 0 0 0 0 0 0 0 0 0 0 0 0 0 0 0 0 0 0 0 0
0 0 0 0 0 0 0 0 0 0 0 0 0 0 0 0 0 0 0 0 0 0 0 0 0 0 0 0 0 0 0 0 0 0 0 0 0 0 0 0 0 0 0 0
0 0 0 0 0 0 0 0 0 0 0 0 0 0 0 0 0 0 0 0 0 0 0 0 0 0 0 0 0 0 0 0 0 0 0 0 0 0 0 0 0 0 0 0
0 0 0 0 0 0 0 0 0 0 0 0 0 0 0 0 0 0 0 0 0 0 0 0 0 0 0 0 0 0 0 0 0 0 0 0 0 0 0 0 0 0 0 0
0 0 0 0 0 0 0 0 0 0 0 0 0 0 0 0 0 0 0 0 0 0 0 0 0 0 0 0 0 0 0 0 0 0 0 0 0 0 0 0 0 0 0 0
0 0 0 0 0 0 0 0 0 0 0 0 0 0 0 0 0 0 0 0 0 0 0 0 0 0 0 0 0 0 0 0 0 0 0 0 0 0 0 0 0 0 0 0
0 0 0 0 0 0 0 0 0 0 0 0 0 0 0 0 0 0 0 0 0 0 0 0 0 0 0 0 0 0 0 0 0 0 0 0 0 0 0 0 0 0 0 0
0 0 0 0 0 0 0 0 0 0 0 0 0 0 0 0 0 0 0 0 0 0 0 0 0 0 0 0 0 0 0 0 0 0 0 0 0 0 0 0 0 0 0 0
0 0 0 0 0 0 0 0 0 0 0 0 0 0 0 0 0 0 0 0 0 0 0 0 0 0 0 0 0 0 0 0 0 0 0 0 0 0 0 0 0 0 0 0
0 0 0 0 0 0 0 0 0 0 0 0 0 0 0 0 0 0 0 0 0 0 0 0 0 0 0 0 0 0 0 0 0 0 0 0 0 0 0 0 0 0 0 0
0 0 0 0 0 0 0 0 0 0 0 0 0 0 0 0 0 0 0 0 0 0 0 0 0 0 0 0 0 0 0 0 0 0 0 0 0 0 0 0 0 0 0 0
0 0 0 0 0 0 0 0 0 0 0 0 0 0 0 0 0 0 0 0 0 0 0 0 0 0 0 0 0 0 0 0 0 0 0 0 0 0 0 0 0 0 0 0
0 0 0 0 0 0 0 0 0 0 0 0 0 0 0 0 0 0 0 0 0 0 0 0 0 0 0 0 0 0 0 0 0 0 0 0 0 0 0 0 0 0 0 0
Wind_Speed
7 5 5 8 12 16 19 17 16 18 21 22 16 11 10 9 9 8 9 9 9 9 8 7 7 6 6 6 6 7 8 9 10 9 8 7 7 8 7 8 9 9 9 10
6 7 8 11 14 17 20 20 19 17 22 19 17 10 10 10 9 10 11 11 10 10 8 8 8 8 7 7 7 6 8 8 7 6 6 6 7 6 6 7 7 7 8 8
6 6 4 13 17 19 17 17 19 23 27 16 15 15 15 12 11 13 14 12 11 11 10 9 9 8 8 7 6 6 7 6 5 6 6 6 5 5 6 6 6 6 6 7
3 2 13 11 8 13 18 20 19 18 19 17 19 17 12 11 13 15 13 11 10 9 9 8 6 6 5 5 6 6 6 6 6 6 6 5 5 5 5 4 4 4 5 5
4 6 9 9 6 9 13 17 15 19 22 18 14 11 14 12 12 14 12 11 10 9 8 6 5 6 6 5 5 6 6 6 6 7 6 6 6 5 4 3 3 3 2 3
5 5 9 9 6 5 6 12 8 11 17 15 8 11 19 11 8 10 9 8 8 6 5 5 5 6 7 7 7 7 7 6 6 6 6 6 6 5 3 3 3 3 2 2
10 8 10 8 5 3 8 10 7 7 10 10 11 16 16 8 7 9 9 8 7 5 5 5 4 6 7 7 8 7 5 5 5 5 6 5 5 4 4 4 4 3 3 1
8 9 11 4 1 5 6 6 6 6 8 10 12 14 12 8 7 7 6 6 5 4 4 3 3 6 7 7 5 4 5 6 5 5 5 4 5 4 4 5 4 4 3 2
8 8 3 1 3 3 3 5 6 7 9 9 11 12 10 9 8 6 5 4 3 3 3 0 1 4 6 4 4 5 6 5 5 5 5 5 5 5 4 4 4 3 3 3
5 7 5 2 2 4 5 6 7 8 9 8 9 11 10 8 7 5 4 3 1 2 2 1 0 1 2 2 4 5 6 5 5 5 5 4 3 4 4 4 4 4 4 3
6 5 4 2 1 5 7 8 9 8 7 7 8 9 8 7 6 5 4 2 0 2 2 1 1 2 2 2 3 5 5 5 5 4 5 4 3 2 3 2 3 4 3 3
6 2 3 5 4 6 7 8 9 9 9 8 6 8 7 6 5 4 3 3 3 3 3 2 3 3 3 2 2 4 5 4 4 4 4 4 4 4 6 5 6 5 5 4
5 5 6 8 6 5 6 8 8 7 7 8 7 6 6 4 4 4 4 4 3 3 3 3 4 4 4 2 2 3 4 4 3 3 4 4 4 4 4 5 7 7 6 6
3 4 5 4 5 7 7 8 7 6 6 6 6 6 5 4 4 4 4 4 3 4 4 4 4 4 5 3 2 3 4 4 4 3 3 3 3 3 4 4 3 2 4 6
4 5 6 7 7 6 7 7 7 7 7 7 6 6 5 4 5 5 5 4 4 6 5 5 5 5 6 3 3 4 4 3 3 4 3 3 3 4 4 4 4 3 2 3
7 6 5 5 6 7 7 7 7 8 7 7 6 6 5 4 4 5 6 5 5 5 5 5 5 5 5 4 3 4 4 5 5 4 4 4 4 4 4 4 4 3 2 1
4 4 4 5 7 7 6 6 6 7 7 6 6 6 5 4 4 5 5 5 5 5 5 5 5 5 5 4 4 3 3 4 5 5 4 3 3 3 3 4 3 3 2 2
3 5 5 6 7 7 7 6 6 6 6 6 5 4 4 3 3 3 3 3 4 6 7 6 5 5 5 5 4 3 3 4 4 4 4 4 4 3 3 4 3 3 2 3
3 4 4 5 5 5 5 5 5 5 5 5 4 3 3 3 3 2 3 4 4 5 6 7 7 6 5 6 5 3 4 4 4 4 4 5 4 4 4 4 3 3 3 2
3 3 3 4 3 3 3 4 4 4 4 4 3 2 3 4 3 3 4 5 4 3 4 5 5 5 5 5 5 3 4 4 4 4 4 4 4 3 3 3 3 3 2 2
3 3 3 3 3 3 3 3 3 4 4 4 3 2 2 3 3 3 3 3 3 4 4 5 4 4 4 4 4 4 4 4 4 3 3 3 3 3 3 3 2 2 2 2
3 3 3 3 2 3 3 3 3 3 3 4 4 4 3 4 4 4 4 3 3 4 4 3 3 4 4 4 3 3 3 3 3 3 2 2 2 2 2 2 1 1 1 1
2 2 2 2 2 2 3 3 3 3 3 3 3 3 3 3 2 2 2 3 3 4 3 3 4 5 5 4 3 3 3 3 3 2 2 2 1 1 1 1 1 0 0 0
2 2 2 2 1 2 3 3 3 2 2 2 3 3 2 2 2 2 2 3 4 4 3 4 5 6 5 3 3 3 2 2 2 2 1 1 1 1 0 0 0 1 1 1
2 2 2 2 2 2 2 2 2 2 2 2 2 3 2 1 1 2 2 3 4 4 3 4 6 5 4 2 2 2 2 1 1 1 0 0 0 0 1 1 1 2 2 2
1 1 1 2 2 2 2 1 1 2 2 2 2 2 2 2 2 1 2 2 3 3 2 2 3 3 2 2 2 1 1 1 1 1 1 1 1 2 2 2 3 3 3 3
1 1 1 2 1 1 1 1 1 2 1 2 2 2 2 2 2 2 2 2 2 2 2 2 2 2 2 2 2 2 1 1 1 2 2 2 2 2 3 3 3 3 3 4
Wind_Direction
238 237 203 214 217 213 218 225 233 240 244 253 254 247 246 244 243 246 251 250 246 245 242 233 228 223 215 214 202 191 190 199 209 208 205 205 205 207 207 209 213 215 216 218
244 239 231 237 231 225 226 228 235 247 255 251 253 250 249 245 237 240 245 245 245 244 240 233 226 220 212 210 198 184 193 204 202 193 193 198 201 199 200 207 209 210 214 216
239 239 241 238 224 222 223 222 223 236 245 249 251 243 240 237 234 237 240 238 237 239 235 229 222 212 209 205 182 181 192 194 188 185 192 199 195 192 202 204 202 209 215 215
227 210 232 239 219 216 228 234 230 237 249 247 246 251 247 230 228 237 239 238 237 238 239 233 217 202 192 174 172 178 184 187 185 182 187 183 181 193 199 191 194 204 211 216
203 230 260 274 240 205 215 237 232 239 250 256 260 272 263 240 230 238 237 233 234 233 233 228 209 189 167 172 172 177 188 192 187 180 179 178 184 191 184 177 186 189 191 202
206 224 236 245 247 237 209 249 251 246 254 259 254 251 260 255 233 242 246 241 237 232 222 217 211 169 166 181 180 195 198 193 180 174 174 180 183 176 165 169 180 173 184 191
217 231 254 261 269 145 194 245 272 259 263 262 242 246 270 283 244 235 236 239 235 222 215 220 192 163 177 186 200 200 177 165 164 168 170 169 163 159 155 156 158 165 168 161
199 218 245 270 186 191 242 290 301 288 278 278 276 274 280 278 265 252 245 245 232 214 221 220 173 168 184 202 201 163 154 157 161 160 155 153 152 152 152 155 160 164 161 160
201 217 232 170 218 276 318 304 307 311 306 298 291 286 288 281 275 268 253 250 227 196 199 189 150 168 191 204 159 150 149 156 155 149 148 151 153 156 155 158 163 168 167 174
231 245 252 259 293 328 327 306 307 311 310 310 299 299 299 296 291 289 289 278 232 160 165 188 84 119 188 161 149 148 152 153 152 150 145 142 145 153 157 166 169 169 173 175
244 270 298 265 325 323 320 318 319 320 316 316 315 310 308 306 310 309 316 329 43 148 152 137 73 64 54 90 135 146 145 147 147 144 142 138 132 134 147 149 162 164 171 166
242 260 268 281 321 330 323 322 322 324 328 334 335 320 318 318 325 334 350 16 44 62 77 66 62 53 37 53 126 143 142 147 148 144 140 141 138 114 90 97 100 110 122 130
270 296 278 282 301 332 320 317 320 323 326 331 338 337 331 334 349 3 14 26 40 55 70 75 69 47 20 27 99 129 135 138 135 135 139 144 145 143 130 91 81 82 91 105
303 317 288 301 313 327 325 323 325 327 341 343 340 343 345 355 4 13 15 19 40 57 58 61 61 35 5 14 82 103 111 113 120 124 128 133 135 133 135 138 129 81 55 73
314 306 282 299 310 326 335 336 335 335 343 346 350 348 350 358 3 7 8 19 48 53 43 45 47 18 0 16 73 92 99 102 107 110 112 116 120 120 119 120 118 109 78 51
307 300 298 303 313 330 338 338 330 325 332 337 345 349 354 7 17 19 18 23 47 47 32 34 30 2 359 21 66 80 83 89 98 105 107 109 110 114 116 116 113 108 96 68
308 306 316 311 314 321 325 323 316 315 324 333 336 341 349 5 19 21 24 34 51 50 35 29 15 4 9 26 55 75 83 88 90 94 95 100 105 108 111 113 113 107 89 76
269 280 288 289 296 306 314 320 319 319 321 322 327 340 352 0 5 5 17 37 55 50 31 16 12 15 19 28 46 63 78 84 87 93 95 94 96 98 101 103 105 100 79 64
296 290 295 295 298 300 305 313 317 320 324 328 337 349 357 1 7 20 38 43 40 34 11 2 13 23 25 28 48 59 75 83 84 81 84 89 89 88 90 94 94 90 87 76
305 308 312 314 321 313 311 318 323 328 335 338 344 6 17 11 14 39 62 58 32 4 352 3 11 18 20 26 41 58 71 79 84 83 81 82 85 84 82 86 89 87 82 79
303 313 322 324 326 330 330 332 337 341 345 355 5 8 13 15 24 34 52 51 11 359 6 17 20 16 19 28 39 56 67 75 81 85 88 91 91 90 89 89 88 88 90 89
305 311 315 318 327 336 343 349 352 355 5 17 22 23 30 30 29 37 45 37 1 357 6 14 14 18 28 37 46 57 63 68 72 78 86 92 101 104 101 98 97 94 95 98
310 312 315 320 323 328 345 360 5 11 16 19 18 17 18 18 14 21 19 4 354 0 11 12 11 20 31 40 48 57 63 67 68 69 73 77 85 99 109 108 113 128 152 187
320 324 319 319 334 357 354 350 356 4 10 13 11 5 3 13 23 25 14 358 358 2 8 4 11 21 30 37 39 45 50 56 59 63 68 72 81 95 122 177 233 246 238 241
309 319 333 341 343 328 319 330 345 358 3 5 4 359 357 4 2 348 352 352 354 2 3 4 10 16 25 29 29 27 25 25 24 27 43 29 289 257 246 241 240 244 244 243
298 302 297 288 287 299 313 325 329 333 342 340 343 347 351 354 357 348 350 354 357 357 355 354 358 2 8 12 10 360 350 344 341 331 300 283 267 262 257 250 248 250 249 248
293 293 297 301 297 287 287 285 288 302 312 309 310 319 329 331 334 336 337 335 337 338 339 340 340 339 337 334 326 317 309 302 294 285 276 268 263 260 260 258 258 256 254 253